timestamp,surface_pressure_avg,surface_temp_avg,battery_voltage,lat,long
2018-03-06 00:00:00+00:00,295.9747,1.66,12.81,47.84626,-54.09684
2018-03-06 00:10:00+00:00,306.3196,1.6,12.81,47.84626,-54.09684
2018-03-06 00:20:00+00:00,314.3914,1.6,12.89,47.84626,-54.09684
2018-03-06 00:30:00+00:00,320.0963,1.5,12.89,47.84626,-54.09684
2018-03-06 00:40:00+00:00,328.473,1.5,12.89,47.84626,-54.09684
2018-03-06 00:50:00+00:00,339.0229,1.5,12.89,47.84626,-54.09684
2018-03-06 01:00:00+00:00,345.6047,1.5,12.81,47.84626,-54.09684
2018-03-06 01:10:00+00:00,350.5129,1.5,12.81,47.84626,-54.09684
2018-03-06 01:20:00+00:00,355.7496,1.5,12.89,47.84626,-54.09684
2018-03-06 01:30:00+00:00,359.573,1.5,12.89,47.84626,-54.09684
2018-03-06 01:40:00+00:00,361.1063,1.5,12.89,47.84626,-54.09684
2018-03-06 01:50:00+00:00,363.0895,1.46,12.89,47.84626,-54.09684
2018-03-06 02:00:00+00:00,367.2746,1.41,12.81,47.84626,-54.09684
2018-03-06 02:10:00+00:00,369.0295,1.4,12.73,47.84626,-54.09684
2018-03-06 02:20:00+00:00,367.4463,1.4,12.81,47.84626,-54.09684
2018-03-06 02:30:00+00:00,367.6213,1.4,12.81,47.84626,-54.09684
2018-03-06 02:40:00+00:00,369.4045,1.4,12.89,47.84626,-54.09684
2018-03-06 02:50:00+00:00,366.0746,1.5,12.89,47.84626,-54.09684
2018-03-06 03:00:00+00:00,362.5779,1.48,12.81,47.84626,-54.09684
2018-03-06 03:10:00+00:00,361.3012,1.4,12.73,47.84626,-54.09684
2018-03-06 03:20:00+00:00,361.2279,1.4,12.81,47.84626,-54.09684
2018-03-06 03:30:00+00:00,359.6546,1.4,12.81,47.84626,-54.09684
2018-03-06 03:40:00+00:00,354.458,1.4,12.81,47.84626,-54.09684
2018-03-06 03:50:00+00:00,350.5363,1.4,12.81,47.84626,-54.09684
2018-03-06 04:00:00+00:00,351.7663,1.4,12.81,47.84626,-54.09684
2018-03-06 04:10:00+00:00,348.7546,1.4,12.73,47.84626,-54.09684
2018-03-06 04:20:00+00:00,341.3863,1.47,12.81,47.84626,-54.09684
2018-03-06 04:30:00+00:00,336.8547,1.4,12.81,47.84626,-54.09684
2018-03-06 04:40:00+00:00,333.113,1.39,12.81,47.84626,-54.09684
2018-03-06 04:50:00+00:00,323.6931,1.36,12.81,47.84626,-54.09684
2018-03-06 05:00:00+00:00,315.4563,1.3,12.81,47.84626,-54.09684
2018-03-06 05:10:00+00:00,311.913,1.3,12.73,47.84626,-54.09684
2018-03-06 05:20:00+00:00,305.078,1.32,12.81,47.84626,-54.09684
2018-03-06 05:30:00+00:00,293.548,1.33,12.81,47.84626,-54.09684
2018-03-06 05:40:00+00:00,284.3314,1.36,12.81,47.84626,-54.09684
2018-03-06 05:50:00+00:00,277.6347,1.37,12.81,47.84626,-54.09684
2018-03-06 06:00:00+00:00,266.183,1.4,12.81,47.84626,-54.09684
2018-03-06 06:10:00+00:00,251.493,1.4,12.73,47.84626,-54.09684
2018-03-06 06:20:00+00:00,241.0181,1.4,12.81,47.84626,-54.09684
2018-03-06 06:30:00+00:00,236.6747,1.4,12.81,47.84626,-54.09684
2018-03-06 06:40:00+00:00,228.1248,1.4,12.81,47.84626,-54.09684
2018-03-06 06:50:00+00:00,215.8948,1.4,12.81,47.84626,-54.09684
2018-03-06 07:00:00+00:00,209.3947,1.4,12.73,47.84626,-54.09684
2018-03-06 07:10:00+00:00,204.8781,1.4,12.73,47.84626,-54.09684
2018-03-06 07:20:00+00:00,197.1065,1.4,12.81,47.84626,-54.09684
2018-03-06 07:30:00+00:00,192.3531,1.4,12.81,47.84626,-54.09684
2018-03-06 07:40:00+00:00,193.1748,1.4,12.81,47.84626,-54.09684
2018-03-06 07:50:00+00:00,190.5398,1.4,12.81,47.84626,-54.09684
2018-03-06 08:00:00+00:00,188.5715,1.4,12.73,47.84626,-54.09684
2018-03-06 08:10:00+00:00,190.9115,1.4,12.73,47.84626,-54.09684
2018-03-06 08:20:00+00:00,191.9715,1.4,12.81,47.84626,-54.09684
2018-03-06 08:30:00+00:00,192.4932,1.39,12.81,47.84626,-54.09684
2018-03-06 08:40:00+00:00,196.0348,1.39,12.81,47.84626,-54.09684
2018-03-06 08:50:00+00:00,201.7964,1.4,12.81,47.84626,-54.09684
2018-03-06 09:00:00+00:00,203.3965,1.4,12.73,47.84626,-54.09684
2018-03-06 09:10:00+00:00,205.7098,1.39,12.73,47.84626,-54.09684
2018-03-06 09:20:00+00:00,209.7631,1.39,12.81,47.84626,-54.09684
2018-03-06 09:30:00+00:00,211.2647,1.39,12.81,47.84626,-54.09684
2018-03-06 09:40:00+00:00,213.2297,1.35,12.81,47.84626,-54.09684
2018-03-06 09:50:00+00:00,220.1381,1.35,12.81,47.84626,-54.09684
2018-03-06 10:00:00+00:00,225.1265,1.3,12.73,47.84626,-54.09684
2018-03-06 10:10:00+00:00,225.023,1.3,12.73,47.84626,-54.09684
2018-03-06 10:20:00+00:00,228.4381,1.3,12.81,47.84626,-54.09684
2018-03-06 10:30:00+00:00,236.5164,1.3,12.81,47.84626,-54.09684
2018-03-06 10:40:00+00:00,238.623,1.3,12.81,47.84626,-54.09684
2018-03-06 10:50:00+00:00,240.5548,1.3,12.81,47.84626,-54.09684
2018-03-06 11:00:00+00:00,246.1798,1.3,12.73,47.84626,-54.09684
2018-03-06 11:10:00+00:00,252.1497,1.3,12.73,47.84626,-54.09684
2018-03-06 11:20:00+00:00,255.0347,1.3,12.81,47.84626,-54.09684
2018-03-06 11:30:00+00:00,257.9931,1.3,12.81,47.84626,-54.09684
2018-03-06 11:40:00+00:00,264.3731,1.3,12.89,47.84626,-54.09684
2018-03-06 11:50:00+00:00,267.8964,1.3,12.89,47.84626,-54.09684
2018-03-06 12:00:00+00:00,270.7248,1.29,12.81,47.84626,-54.09684
2018-03-06 12:10:00+00:00,279.0397,1.28,12.81,47.84626,-54.09684
2018-03-06 12:20:00+00:00,286.8547,1.3,13.05,47.84626,-54.09684
2018-03-06 12:30:00+00:00,290.1764,1.3,13.21,47.84626,-54.09684
2018-03-06 12:40:00+00:00,299.1681,1.29,13.37,47.84626,-54.09684
2018-03-06 12:50:00+00:00,311.553,1.3,13.53,47.84626,-54.09684
2018-03-06 13:00:00+00:00,316.4846,1.3,13.44,47.84626,-54.09684
2018-03-06 13:10:00+00:00,319.6313,1.3,13.29,47.84626,-54.09684
2018-03-06 13:20:00+00:00,328.798,1.3,13.37,47.84626,-54.09684
2018-03-06 13:30:00+00:00,338.1263,1.3,13.37,47.84626,-54.09684
2018-03-06 13:40:00+00:00,339.5546,1.35,13.37,47.84626,-54.09684
2018-03-06 13:50:00+00:00,340.803,1.37,13.37,47.84626,-54.09684
2018-03-06 14:00:00+00:00,347.463,1.36,13.37,47.84626,-54.09684
2018-03-06 14:10:00+00:00,349.3746,1.37,13.21,47.84626,-54.09684
2018-03-06 14:20:00+00:00,347.2196,1.36,13.44,47.84626,-54.09684
2018-03-06 14:30:00+00:00,351.0713,1.37,13.53,47.84626,-54.09684
2018-03-06 14:40:00+00:00,355.3346,1.37,13.53,47.84626,-54.09684
2018-03-06 14:50:00+00:00,353.5146,1.4,13.6,47.84626,-54.09684
2018-03-06 15:00:00+00:00,350.9864,1.4,13.44,47.84626,-54.09684
2018-03-06 15:10:00+00:00,354.7913,1.4,13.37,47.84626,-54.09684
2018-03-06 15:20:00+00:00,356.2614,1.4,13.68,47.84626,-54.09684
2018-03-06 15:30:00+00:00,353.5997,1.4,13.84,47.84626,-54.09684
2018-03-06 15:40:00+00:00,352.7346,1.4,13.76,47.84626,-54.09684
2018-03-06 15:50:00+00:00,353.1229,1.4,13.68,47.84626,-54.09684
2018-03-06 16:00:00+00:00,350.4696,1.5,13.6,47.84626,-54.09684
2018-03-06 16:10:00+00:00,347.2112,1.5,13.37,47.84626,-54.09684
2018-03-06 16:20:00+00:00,344.8763,1.47,13.44,47.84626,-54.09684
2018-03-06 16:30:00+00:00,344.0729,1.44,13.44,47.84626,-54.09684
2018-03-06 16:40:00+00:00,337.6146,1.5,13.44,47.84626,-54.09684
2018-03-06 16:50:00+00:00,333.6329,1.5,13.44,47.84626,-54.09684
2018-03-06 17:00:00+00:00,329.5897,1.37,13.29,47.84626,-54.09684
2018-03-06 17:10:00+00:00,323.5862,1.4,13.21,47.84626,-54.09684
2018-03-06 17:20:00+00:00,315.8163,1.4,13.29,47.84626,-54.09684
2018-03-06 17:30:00+00:00,306.7747,1.37,13.29,47.84626,-54.09684
2018-03-06 17:40:00+00:00,296.9496,1.4,13.29,47.84626,-54.09684
2018-03-06 17:50:00+00:00,287.2697,1.3,13.21,47.84626,-54.09684
2018-03-06 18:00:00+00:00,277.8914,1.37,13.13,47.84626,-54.09684
2018-03-06 18:10:00+00:00,267.3181,1.57,13.05,47.84626,-54.09684
2018-03-06 18:20:00+00:00,257.9148,1.5,13.13,47.84626,-54.09684
2018-03-06 18:30:00+00:00,250.2748,1.59,13.13,47.84626,-54.09684
2018-03-06 18:40:00+00:00,241.4447,1.6,13.13,47.84626,-54.09684
2018-03-06 18:50:00+00:00,228.8714,1.6,13.21,47.84626,-54.09684
2018-03-06 19:00:00+00:00,221.0764,1.6,13.13,47.84626,-54.09684
2018-03-06 19:10:00+00:00,214.1165,1.6,13.05,47.84626,-54.09684
2018-03-06 19:20:00+00:00,205.1064,1.6,13.05,47.84626,-54.09684
2018-03-06 19:30:00+00:00,199.2415,1.6,13.05,47.84626,-54.09684
2018-03-06 19:40:00+00:00,197.6398,1.6,13.13,47.84626,-54.09684
2018-03-06 19:50:00+00:00,192.7165,1.6,13.13,47.84626,-54.09684
2018-03-06 20:00:00+00:00,186.2432,1.6,13.05,47.84626,-54.09684
2018-03-06 20:10:00+00:00,185.1665,1.6,12.97,47.84626,-54.09684
2018-03-06 20:20:00+00:00,187.2648,1.6,13.05,47.84626,-54.09684
2018-03-06 20:30:00+00:00,186.8765,1.6,12.97,47.84626,-54.09684
2018-03-06 20:40:00+00:00,186.4265,1.59,12.97,47.84626,-54.09684
2018-03-06 20:50:00+00:00,192.5131,1.57,12.97,47.84626,-54.09684
2018-03-06 21:00:00+00:00,196.2314,1.53,12.97,47.84626,-54.09684
2018-03-06 21:10:00+00:00,196.8665,1.54,12.89,47.84626,-54.09684
2018-03-06 21:20:00+00:00,203.2681,1.54,12.97,47.84626,-54.09684
2018-03-06 21:30:00+00:00,210.0998,1.54,12.97,47.84626,-54.09684
2018-03-06 21:40:00+00:00,213.4764,1.53,12.97,47.84626,-54.09684
2018-03-06 21:50:00+00:00,218.7414,1.53,12.97,47.84626,-54.09684
2018-03-06 22:00:00+00:00,226.6581,1.5,12.89,47.84626,-54.09684
2018-03-06 22:10:00+00:00,231.8364,1.5,12.81,47.84626,-54.09684
2018-03-06 22:20:00+00:00,234.0581,1.5,12.89,47.84626,-54.09684
2018-03-06 22:30:00+00:00,238.3531,1.5,12.89,47.84626,-54.09684
2018-03-06 22:40:00+00:00,243.2681,1.5,12.97,47.84626,-54.09684
2018-03-06 22:50:00+00:00,244.7914,1.5,12.97,47.84626,-54.09684
2018-03-06 23:00:00+00:00,246.3614,1.5,12.89,47.84626,-54.09684
2018-03-06 23:10:00+00:00,248.3781,1.5,12.81,47.84626,-54.09684
2018-03-06 23:20:00+00:00,252.4531,1.5,12.89,47.84626,-54.09684
2018-03-06 23:30:00+00:00,257.2864,1.5,12.89,47.84626,-54.09684
2018-03-06 23:40:00+00:00,264.9547,1.5,12.89,47.84626,-54.09684
2018-03-06 23:50:00+00:00,271.183,1.5,12.89,47.84626,-54.09684
